Anchorage Merrill, AK

4:19 PM AKDT on July 27, 2017 (GMT -0800)
Merrill

Weather History for PAMR - April, 2014

Change the Weather History Date:

Thursday, April 10, 2014

  Actual Average Record
Temperature  
Mean Temperature 26 °F -  
Max Temperature 36 °F 41 °F 55 °F (1997)
Min Temperature 17 °F 25 °F 12 °F (2008)
Degree Days  
Heating Degree Days 38    
Moisture  
Dew Point 6 °F    
Average Humidity 44    
Maximum Humidity 69    
Minimum Humidity 29    
Precipitation  
Precipitation 0.00 in - - ()
Snow  
Snow 0.00 in - - ()
Snow Depth 2.00 in    
Sea Level Pressure  
Sea Level Pressure 29.99 in    
Wind  
Wind Speed 3 mph (North)    
Max Wind Speed 7 mph    
Max Gust Speed -    
Visibility 10 miles    
Events      
Averages and records for this station are not official NWS values.
T = Trace of Precipitation, MM = Missing Value Source: NWS Daily Summary

Daily Weather History Graph

Daily Weather History Graph

Search for Another Location

Airport or City:

Trip Planner

Search our weather history database for the weather conditions in past years. The results will help you decide how hot, cold, wet, or windy it might be!

Date:

Astronomy

Apr. 10, 2014 Rise Set
Actual Time 6:53 AM AKDT 9:09 PM AKDT
Civil Twilight 6:06 AM AKDT 9:56 PM AKDT
Nautical Twilight 5:05 AM AKDT 10:58 PM AKDT
Astronomical Twilight 3:41 AM AKDT 12:25 AM AKDT
Moon 3:57 PM AKDT (4/10) 5:31 AM AKDT (4/10)
Length of Visible Light 15h 49m
Length of Day
14h 15m
Waxing Gibbous, 81% of the Moon is Illuminated
Apr 10
Waxing Gibbous
Apr 14
Full
Apr 21
Last Quarter
Apr 28
New
May 6
First Quarter

Hourly Weather History & Observations

Time (AKDT) Temp. Windchill Dew Point Humidity Pressure Visibility Wind Dir Wind Speed Gust Speed Precip Events Conditions
12:53 AM 24.1 °F 19.7 °F 1.0 °F 37% 29.88 in 10.0 mi North 3.5 mph - N/A   Clear
1:53 AM 21.9 °F 15.7 °F 1.9 °F 42% 29.90 in 10.0 mi North 4.6 mph - N/A   Clear
2:53 AM 19.9 °F 12.1 °F 1.0 °F 44% 29.91 in 10.0 mi North 5.8 mph - N/A   Clear
3:53 AM 19.0 °F 10.0 °F -0.0 °F 43% 29.92 in 10.0 mi North 6.9 mph - N/A   Clear
4:53 AM 18.0 °F 9.8 °F 1.0 °F 48% 29.91 in 10.0 mi North 5.8 mph - N/A   Clear
5:53 AM 18.0 °F - -0.0 °F 45% 29.92 in 10.0 mi Calm Calm - N/A   Clear
6:53 AM 17.1 °F - 1.9 °F 52% 29.93 in 10.0 mi Calm Calm - N/A   Clear
7:53 AM 17.1 °F 11.7 °F 1.0 °F 50% 29.94 in 10.0 mi East 3.5 mph - N/A   Clear
8:53 AM 18.0 °F - 1.9 °F 50% 29.96 in 10.0 mi Calm Calm - N/A   Clear
9:53 AM 19.9 °F - 1.9 °F 46% 29.97 in 10.0 mi Calm Calm - N/A   Clear
10:53 AM 21.9 °F 17.2 °F 1.0 °F 40% 29.99 in 10.0 mi NNE 3.5 mph - N/A   Clear
11:53 AM 25.0 °F - 1.9 °F 37% 30.00 in 10.0 mi Calm Calm - N/A   Clear
12:53 PM 27.0 °F - 5.0 °F 39% 30.01 in 10.0 mi Calm Calm - N/A   Clear
1:53 PM 28.9 °F - 5.0 °F 36% 30.01 in 10.0 mi Calm Calm - N/A   Clear
2:53 PM 32.0 °F 28.7 °F 5.0 °F 32% 30.02 in 10.0 mi NNE 3.5 mph - N/A   Clear
3:53 PM 32.0 °F - 7.0 °F 35% 30.02 in 10.0 mi Calm Calm - N/A   Clear
4:53 PM 36.0 °F 31.1 °F 6.1 °F 29% 30.02 in 10.0 mi Variable 5.8 mph - N/A   Clear
5:53 PM 35.1 °F 31.0 °F 8.1 °F 33% 30.02 in 10.0 mi NW 4.6 mph - N/A   Clear
6:53 PM 34.0 °F 29.8 °F 10.0 °F 37% 30.03 in 10.0 mi WNW 4.6 mph - N/A   Clear
7:53 PM 33.1 °F 28.7 °F 15.1 °F 48% 30.04 in 10.0 mi WNW 4.6 mph - N/A   Clear
8:53 PM 33.1 °F - 14.0 °F 46% 30.05 in 10.0 mi Calm Calm - N/A   Clear
9:53 PM 30.0 °F - 19.9 °F 66% 30.07 in 10.0 mi Calm Calm - N/A   Partly Cloudy
10:53 PM 28.9 °F - 17.1 °F 61% 30.09 in 10.0 mi Calm Calm - N/A   Clear
11:53 PM 26.1 °F - 17.1 °F 69% 30.11 in 10.0 mi Calm Calm - N/A   Clear